TimeEDT,TemperatureF,Dew PointF,Humidity,Sea Level PressureIn,VisibilityMPH,Wind Direction,Wind SpeedMPH,Gust SpeedMPH,PrecipitationIn,Events,Conditions,WindDirDegrees,DateUTC
12:15 AM,59.0,57.2,94,30.05,7.0,Calm,Calm,-,N/A,,Clear,0,2012-10-06 04:15:00
12:35 AM,59.0,59.0,100,30.04,10.0,Calm,Calm,-,N/A,,Clear,0,2012-10-06 04:35:00
12:55 AM,60.8,59.0,94,30.03,10.0,Calm,Calm,-,N/A,,Clear,0,2012-10-06 04:55:00
1:15 AM,59.0,57.2,94,30.03,10.0,SW,3.5,-,N/A,,Clear,230,2012-10-06 05:15:00
1:35 AM,59.0,59.0,100,30.03,10.0,Calm,Calm,-,N/A,,Clear,0,2012-10-06 05:35:00
1:55 AM,57.2,57.2,100,30.02,5.0,Calm,Calm,-,N/A,,Clear,0,2012-10-06 05:55:00
2:15 AM,55.4,55.4,100,30.02,3.0,Calm,Calm,-,N/A,,Clear,0,2012-10-06 06:15:00
2:35 AM,55.4,55.4,100,30.01,5.0,Calm,Calm,-,N/A,,Clear,0,2012-10-06 06:35:00
2:55 AM,55.4,55.4,100,30.01,7.0,Calm,Calm,-,N/A,,Clear,0,2012-10-06 06:55:00
3:15 AM,53.6,53.6,100,30.00,2.5,Calm,Calm,-,N/A,,Clear,0,2012-10-06 07:15:00
3:35 AM,55.4,55.4,100,29.98,3.0,Calm,Calm,-,N/A,,Clear,0,2012-10-06 07:35:00
3:55 AM,53.6,53.6,100,29.98,4.0,Calm,Calm,-,N/A,,Clear,0,2012-10-06 07:55:00
4:15 AM,53.6,53.6,100,29.98,2.5,Calm,Calm,-,N/A,,Clear,0,2012-10-06 08:15:00
4:35 AM,53.6,51.8,94,29.97,3.0,Calm,Calm,-,N/A,,Clear,0,2012-10-06 08:35:00
4:55 AM,53.6,51.8,94,29.97,0.8,Calm,Calm,-,N/A,,Mostly Cloudy,0,2012-10-06 08:55:00
5:15 AM,51.8,51.8,100,29.97,0.5,Calm,Calm,-,N/A,Fog,Fog,0,2012-10-06 09:15:00
5:35 AM,51.8,51.8,100,29.97,2.0,Calm,Calm,-,N/A,,Scattered Clouds,0,2012-10-06 09:35:00
5:55 AM,51.8,51.8,100,29.97,4.0,Calm,Calm,-,N/A,,Clear,0,2012-10-06 09:55:00
6:15 AM,51.8,51.8,100,29.99,1.2,Calm,Calm,-,N/A,,Scattered Clouds,0,2012-10-06 10:15:00
6:35 AM,51.8,51.8,100,29.98,3.0,Calm,Calm,-,N/A,,Clear,0,2012-10-06 10:35:00
6:55 AM,51.8,51.8,100,29.99,3.0,Calm,Calm,-,N/A,,Scattered Clouds,0,2012-10-06 10:55:00
7:15 AM,51.8,51.8,100,29.99,2.5,Calm,Calm,-,N/A,,Overcast,0,2012-10-06 11:15:00
7:35 AM,51.8,51.8,100,29.99,5.0,Calm,Calm,-,N/A,,Overcast,0,2012-10-06 11:35:00
7:55 AM,51.8,51.8,100,29.99,0.8,Calm,Calm,-,N/A,,Overcast,0,2012-10-06 11:55:00
8:15 AM,53.6,53.6,100,30.00,1.8,Calm,Calm,-,N/A,,Scattered Clouds,0,2012-10-06 12:15:00
8:35 AM,55.4,55.4,100,30.00,7.0,Calm,Calm,-,N/A,,Clear,0,2012-10-06 12:35:00
8:55 AM,60.8,59.0,94,30.00,5.0,Calm,Calm,-,N/A,,Clear,0,2012-10-06 12:55:00
9:15 AM,62.6,60.8,94,30.00,7.0,Calm,Calm,-,N/A,,Clear,0,2012-10-06 13:15:00
9:35 AM,64.4,60.8,88,29.98,10.0,Calm,Calm,-,N/A,,Clear,0,2012-10-06 13:35:00
9:55 AM,68.0,60.8,78,29.99,10.0,Calm,Calm,-,N/A,,Clear,0,2012-10-06 13:55:00
10:15 AM,69.8,60.8,73,29.98,10.0,Calm,Calm,-,N/A,,Clear,0,2012-10-06 14:15:00
10:35 AM,71.6,59.0,64,29.97,10.0,SSE,3.5,-,N/A,,Clear,160,2012-10-06 14:35:00
10:55 AM,73.4,59.0,61,29.96,10.0,ESE,3.5,-,N/A,,Clear,110,2012-10-06 14:55:00
11:15 AM,75.2,59.0,57,29.96,10.0,Calm,Calm,-,N/A,,Clear,0,2012-10-06 15:15:00
11:35 AM,77.0,55.4,47,29.96,10.0,SW,3.5,-,N/A,,Clear,220,2012-10-06 15:35:00
11:55 AM,78.8,55.4,44,29.96,10.0,Calm,Calm,-,N/A,,Clear,0,2012-10-06 15:55:00
12:15 PM,78.8,53.6,42,29.97,10.0,WSW,3.5,-,N/A,,Clear,250,2012-10-06 16:15:00
12:35 PM,78.8,53.6,42,29.96,10.0,Calm,Calm,-,N/A,,Clear,0,2012-10-06 16:35:00
12:55 PM,78.8,53.6,42,29.96,10.0,South,4.6,-,N/A,,Clear,190,2012-10-06 16:55:00
1:15 PM,80.6,53.6,39,29.96,10.0,SW,5.8,-,N/A,,Clear,230,2012-10-06 17:15:00
1:35 PM,80.6,53.6,39,29.95,10.0,WSW,3.5,-,N/A,,Clear,240,2012-10-06 17:35:00
1:55 PM,80.6,51.8,37,29.94,10.0,WSW,5.8,-,N/A,,Clear,240,2012-10-06 17:55:00
2:15 PM,80.6,51.8,37,29.93,10.0,West,5.8,-,N/A,,Clear,260,2012-10-06 18:15:00
2:35 PM,80.6,51.8,37,29.93,10.0,WSW,4.6,-,N/A,,Scattered Clouds,240,2012-10-06 18:35:00
2:55 PM,80.6,51.8,37,29.92,10.0,West,3.5,-,N/A,,Scattered Clouds,270,2012-10-06 18:55:00
3:15 PM,80.6,53.6,39,29.92,10.0,West,6.9,-,N/A,,Clear,260,2012-10-06 19:15:00
3:35 PM,80.6,51.8,37,29.92,10.0,Calm,Calm,-,N/A,,Mostly Cloudy,0,2012-10-06 19:35:00
3:55 PM,80.6,51.8,37,29.91,10.0,Calm,Calm,-,N/A,,Scattered Clouds,0,2012-10-06 19:55:00
4:15 PM,82.4,51.8,35,29.90,10.0,Calm,Calm,-,N/A,,Mostly Cloudy,0,2012-10-06 20:15:00
4:35 PM,78.8,53.6,42,29.91,10.0,Calm,Calm,-,N/A,,Overcast,0,2012-10-06 20:35:00
4:55 PM,78.8,55.4,44,29.90,10.0,Calm,Calm,-,N/A,,Overcast,0,2012-10-06 20:55:00
5:15 PM,77.0,57.2,50,29.90,10.0,Calm,Calm,-,N/A,,Mostly Cloudy,0,2012-10-06 21:15:00
5:35 PM,77.0,59.0,54,29.91,10.0,Calm,Calm,-,N/A,,Mostly Cloudy,0,2012-10-06 21:35:00
5:55 PM,77.0,60.8,57,29.91,10.0,Calm,Calm,-,N/A,,Mostly Cloudy,0,2012-10-06 21:55:00
6:15 PM,75.2,60.8,61,29.92,10.0,Calm,Calm,-,N/A,,Mostly Cloudy,0,2012-10-06 22:15:00
6:35 PM,73.4,59.0,61,29.92,10.0,Calm,Calm,-,N/A,,Clear,0,2012-10-06 22:35:00
6:55 PM,69.8,60.8,73,29.93,10.0,Calm,Calm,-,N/A,,Mostly Cloudy,0,2012-10-06 22:55:00
7:15 PM,68.0,62.6,83,29.93,10.0,Calm,Calm,-,N/A,,Overcast,0,2012-10-06 23:15:00
7:35 PM,68.0,62.6,83,29.93,10.0,Calm,Calm,-,N/A,,Overcast,0,2012-10-06 23:35:00
7:55 PM,68.0,62.6,83,29.95,10.0,Calm,Calm,-,N/A,Rain,Light Rain,0,2012-10-06 23:55:00
8:15 PM,64.4,62.6,94,29.96,2.5,Calm,Calm,-,0.09,Rain,Light Rain,0,2012-10-07 00:15:00
8:35 PM,64.4,62.6,94,29.97,5.0,Calm,Calm,-,0.09,,Overcast,0,2012-10-07 00:35:00
8:55 PM,64.4,62.6,94,29.97,7.0,Calm,Calm,-,0.09,,Overcast,0,2012-10-07 00:55:00
9:15 PM,64.4,62.6,94,29.97,10.0,ENE,3.5,-,N/A,Rain,Light Rain,70,2012-10-07 01:15:00
9:35 PM,64.4,62.6,94,29.98,7.0,North,4.6,-,0.02,Rain,Heavy Rain,350,2012-10-07 01:35:00
9:55 PM,62.6,62.6,100,29.98,7.0,NNE,4.6,-,0.03,,Overcast,20,2012-10-07 01:55:00
10:15 PM,62.6,60.8,94,29.98,10.0,North,5.8,-,N/A,Rain,Rain,360,2012-10-07 02:15:00
10:35 PM,62.6,60.8,94,30.00,1.5,NE,5.8,-,0.43,Rain,Heavy Rain,50,2012-10-07 02:35:00
10:55 PM,60.8,60.8,100,30.00,7.0,NNE,5.8,-,0.46,Rain,Rain,30,2012-10-07 02:55:00
11:15 PM,60.8,60.8,100,30.00,10.0,ENE,3.5,-,N/A,,Mostly Cloudy,60,2012-10-07 03:15:00
11:35 PM,60.8,60.8,100,30.00,10.0,NE,3.5,-,N/A,,Mostly Cloudy,40,2012-10-07 03:35:00
11:55 PM,60.8,59.0,94,29.99,10.0,NE,5.8,-,N/A,,Overcast,50,2012-10-07 03:55:00